Location: Burkes Observatory
(44.7598°N, 69.4315°W)
Time: 02:14:00
(UTC-04:00)

Daily predictions for brighter satellites

Satellite Brightness Start Highest point End
(mag) Time Altitude Azimuth Time Altitude Azimuth Time Altitude Azimuth
ATLAS 3B R/B 4.0 01:57:19 36° N 01:57:19 36° N 02:02:10 10° NNE
SL-16 R/B 4.1 02:00:10 31° NE 02:00:10 31° NE 02:04:21 10° N
COSMOS 2455 4.4 02:47:54 29° N 02:47:54 29° N 02:51:26 10° NNE
Cosmos 2322 Rocket 3.5 03:00:47 33° E 03:00:47 33° E 03:04:48 10° NE
SL-16 R/B 3.5 03:03:45 35° E 03:03:45 35° E 03:08:01 10° NE
NOSS 3-2 (C) 4.3 03:07:36 44° NNW 03:07:36 44° NNW 03:13:03 10° NNE
Okean O Rocket 4.5 03:07:33 10° ENE 03:08:57 11° E 03:10:14 10° ESE
FALCON 9 R/B 4.3 03:08:16 54° SSW 03:09:51 56° S 03:45:44 10° ESE
Cosmos 1697 Rocket 4.0 03:17:45 31° NNW 03:17:45 31° NNW 03:21:12 10° NNE
CENTAUR R/B 2.5 03:29:41 79° NNE 03:29:41 79° NNE 03:36:16 10° NE
USA 215 3.3 03:23:13 10° ESE 03:29:45 75° NE 03:33:34 27° NW
Cosmos 2360 Rocket 3.8 03:31:01 23° SE 03:32:38 27° ESE 03:37:15 10° NE
ADEOS Rocket 3.0 03:27:04 10° NNE 03:31:54 66° NNE 03:31:54 66° NNE
Cosmos 1980 Rocket 3.1 03:34:35 40° NNW 03:34:35 40° NNW 03:38:42 10° NNE
CZ-2D R/B 2.8 03:29:08 10° N 03:33:14 50° N 03:33:14 50° N
ARIANE 5 R/B 3.5 03:35:34 10° N 03:38:55 40° N 03:38:55 40° N
Cosmos 2315 Rocket 3.9 03:41:57 85° SSE 03:42:07 88° E 03:48:24 10° N
SL-16 R/B 3.7 03:45:15 28° NW 03:45:15 28° NW 03:48:18 10° NNW
Cosmos 1975 Rocket 4.2 03:43:40 41° NE 03:43:40 41° NE 03:46:50 10° NNE
Resurs 1-4 Rocket 2.9 03:37:37 10° N 03:41:19 43° NNW 03:41:19 43° NNW
Meteor 1-5 Rocket 4.4 03:43:44 10° N 03:47:51 55° NNW 03:47:51 55° NNW
Cosmos 2263 Rocket 2.1 03:44:04 10° NNW 03:49:42 82° ENE 03:49:51 81° E
Tiangong 2 4.4 03:53:30 11° E 03:53:30 11° E 03:53:39 10° E
DNEPR-1 R/B 4.1 03:53:52 88° SE 03:53:52 88° SE 03:59:01 10° NE
COBE Rocket 4.1 03:53:52 10° N 03:58:21 66° NNW 03:58:21 66° NNW
Cosmos 1709 Rocket 4.2 03:57:26 10° NNW 04:02:44 51° WNW 04:02:44 51° WNW
ISS -1.1 04:08:10 15° ESE 04:08:10 15° ESE 04:08:46 10° ESE
Lacrosse 4 Rocket 3.1 04:03:42 10° NNW 04:07:31 34° NE 04:11:23 10° ESE
EO 1 Del DPAF 4.4 04:09:07 17° SE 04:11:47 43° ENE 04:15:28 10° N
ADEOS II 3.1 04:07:22 10° NNE 04:12:24 43° E 04:16:28 15° SSE
SL-08 ROCKET BODY 4.2 04:07:17 10° N 04:13:13 89° W 04:16:51 24° S
Cosmos 2074 Rocket 4.0 04:09:41 10° N 04:16:00 85° E 04:22:14 10° S
Cosmos 1975 3.6 04:12:38 10° N 04:16:37 51° ENE 04:19:24 18° SSE
Spot 3 4.5 04:11:29 10° NNE 04:16:51 79° WNW 04:17:46 61° SW
Cosmos 1777 Rocket 4.1 04:11:54 10° NNW 04:17:14 78° ENE 04:22:31 10° SSE
CZ-2D R/B 4.3 04:16:19 10° N 04:19:41 40° NW 04:19:41 40° NW
SL-8 R/B 4.1 04:20:05 48° NW 04:20:52 55° N 04:25:35 10° ENE
Meteor 2-13 Rocket 4.5 04:24:25 10° N 04:30:38 83° E 04:36:46 10° S
CZ-4B R/B 3.6 04:25:47 10° NNE 04:31:25 63° ESE 04:36:25 13° S
PSLV R/B 3.5 04:29:44 10° N 04:33:24 79° NW 04:33:24 79° NW
Cosmos 1500 3.1 04:33:31 10° N 04:37:22 90° SSW 04:38:46 38° S
Cosmos 1544 Rocket 3.5 04:35:21 10° NNW 04:39:46 65° W 04:41:13 40° SSW
MOS 1 Rocket 3.4 04:37:42 10° N 04:42:26 55° WNW 04:43:23 46° WSW
Lacrosse 5 3.0 04:44:39 27° SSW 04:44:39 27° SSW 04:47:29 10° S
Cosmos 2322 Rocket 2.8 04:42:37 34° W 04:43:43 37° NW 04:48:55 10° NNE
Okean O Rocket 1.5 04:41:23 10° N 04:45:50 76° WNW 04:47:43 34° SSW
SL-16 R/B 2.9 04:45:38 32° W 04:46:56 36° NW 04:52:10 10° NNE
COSMOS 2428 3.5 04:43:32 10° S 04:48:59 50° ESE 04:54:28 10° NE
Cosmos 2184 Rocket 4.0 04:43:00 10° NNW 04:49:03 57° W 04:55:09 10° S
Okean-O 4.1 04:49:41 10° NNE 04:53:49 37° E 04:57:57 10° SSE
CZ-4B R/B 2.8 04:55:24 10° N 04:58:54 50° WNW 04:59:35 43° WSW
Cosmos 2219 Rocket 3.7 04:55:31 10° S 05:00:31 35° ESE 05:05:33 10° NE
Cosmos 1238 Rocket 2.8 04:58:30 13° S 05:01:07 54° E 05:04:00 10° NNE
ERS-2 2.8 05:00:03 10° NNE 05:03:43 55° ESE 05:07:20 10° S
Cosmos 1844 Rocket 2.8 05:02:51 10° NNW 05:08:28 79° ENE 05:14:02 10° SSE
Genesis I 4.5 05:07:50 24° WNW 05:08:44 26° NW 05:12:06 10° NNE
USA 215 3.8 05:07:11 10° SSE 05:13:05 35° SW 05:19:01 10° WNW
CZ-2D R/B 4.1 05:11:41 10° NNW 05:13:43 12° NW 05:14:34 12° WNW
Cosmos 1455 Rocket 3.7 05:09:49 10° NNW 05:13:47 34° W 05:17:02 14° SSW
Gblst 52 Del rocket 4.3 05:08:51 13° WNW 05:14:05 77° SSW 05:20:30 10° SE
Thor Agena Rocket 3.9 05:10:25 10° SSE 05:15:25 67° ENE 05:20:27 10° N
Cosmos 2278 Rocket 3.6 05:10:26 10° NNW 05:15:49 42° ENE 05:21:10 10° SE
Cosmos 2360 Rocket 2.5 05:12:49 21° SW 05:16:19 49° WNW 05:21:49 10° NNE
Cosmos 1812 4.1 05:17:21 20° WNW 05:17:21 20° WNW 05:20:18 10° NNW
ADEOS Rocket 4.4 05:14:19 10° NNW 05:17:28 15° NW 05:18:51 14° WNW
IRS-1C Rocket 4.3 05:13:10 10° N 05:18:15 50° WNW 05:22:50 12° SW
Cosmos 1980 Rocket 4.3 05:17:15 10° NW 05:18:41 11° NW 05:20:08 10° NNW
Meteor 2-4 Rocket 4.2 05:13:27 10° S 05:18:59 61° E 05:24:23 10° NNE
Cosmos 1025 Rocket 4.1 05:15:08 10° SSE 05:19:19 47° E 05:23:33 10° NNE
CENTAUR R/B 3.9 05:16:52 15° WNW 05:21:01 27° NNW 05:27:02 10° NNE
Cosmos 2154 Rocket 4.0 05:16:28 10° NNW 05:22:33 59° W 05:28:36 10° S
Cosmos 2237 Rocket 4.0 05:18:52 10° SSE 05:23:51 33° ESE 05:28:53 10° NE
Tiangong 2 1.5 05:25:36 26° WSW 05:27:01 46° SSW 05:30:03 10° ESE
Cosmos 1570 Rocket 4.0 05:24:23 10° SSW 05:29:33 64° WNW 05:34:46 10° NNE
Cosmos 405 Rocket 4.3 05:25:57 10° SSE 05:29:46 40° E 05:33:35 10° NNE
USA 116 4.0 05:27:37 10° S 05:31:39 58° W 05:36:16 10° NNW
Cosmos 2263 Rocket 3.8 05:29:52 10° WNW 05:38:12 - SSW 05:31:15 13° W
Meteor 2-19 Rocket 4.4 05:27:30 10° N 05:33:38 78° W 05:39:40 10° S
Meteor 1-31 Rocket 2.6 05:31:27 10° N 05:35:15 72° WNW 05:39:02 10° SSW
Cosmos 1898 Rocket 3.6 05:31:10 10° NNW 05:36:26 83° ENE 05:41:36 10° SSE
Cosmos 1340 3.9 05:34:52 17° WSW 05:36:34 23° WNW 05:39:39 10° NNW
Cosmos 2333 Rocket 3.0 05:31:51 10° S 05:37:23 56° ESE 05:43:00 10° NNE
Cosmos 1743 3.3 05:35:58 10° NNW 05:39:33 36° W 05:43:05 10° SSW
Cosmos 1666 2.7 05:36:10 10° NNW 05:39:58 60° W 05:43:48 10° S
ISS -2.0 05:40:53 15° WSW 05:41:35 16° SW 05:43:39 10° S
ATLAS 5 CENTAUR R/B 2.9 05:36:41 10° NNW 05:42:34 67° NE 05:49:00 10° SE
Cosmos 468 Rocket 4.4 05:38:13 10° S 05:43:21 69° ESE 05:48:34 10° NNE
Cosmos 2181 Rocket 4.0 05:37:41 10° SSW 05:43:52 73° W 05:50:11 10° N
Cosmos 2058 Rocket 4.4 05:41:33 10° N 05:45:53 45° ENE 05:50:10 10° SSE
Lacrosse 4 Rocket 2.4 05:42:36 10° NW 05:46:06 26° WSW 05:49:39 10° SSW
Meteor 1-13 Rocket 4.4 05:41:33 10° SSW 05:46:54 51° WNW 05:52:22 10° N
Cosmos 2322 4.5 05:42:23 12° WSW 05:47:12 34° NW 05:52:26 10° N
Okean 1-7 Rocket 3.6 05:43:05 10° SSW 05:47:36 68° W 05:52:06 10° N
SJ-6F 4.3 05:43:37 10° N 05:47:43 78° WNW 05:51:46 10° SSW
SL-8 Rocket 4.0 05:42:23 10° N 05:48:39 80° W 05:54:49 10° S
SKYMED 2 3.6 05:46:06 10° SSE 05:50:26 88° ENE 05:54:49 10° NNW
ADEOS II 3.1 05:47:31 10° N 05:51:54 27° WNW 05:56:16 10° WSW
DELTA 2 R/B (1) 4.3 05:50:01 10° WSW 05:55:15 45° S 06:00:31 10° E
Cosmos 2341 Rocket 4.4 05:52:36 10° NNW 05:58:26 42° W 06:04:12 10° SSW
Cosmos 858 Rocket 4.5 05:56:34 10° NNW 06:01:50 69° WSW 06:07:03 10° S
SL-8 R/B 3.9 05:59:01 10° WNW 06:03:48 71° NNE 06:08:34 10° ESE
Cosmos 1844 4.0 06:01:24 10° NW 06:06:56 48° WSW 06:12:22 10° S
NOAA 6 4.0 06:02:50 10° N 06:07:56 66° WNW 06:12:59 10° SSW
Cosmos 2218 Rocket 4.1 06:03:16 10° NNW 06:09:38 68° W 06:15:54 10° S
Cosmos 1937 Rocket 3.5 06:05:10 10° NNW 06:10:29 71° WSW 06:15:45 10° S
Cosmos 1606 Rocket 3.6 06:06:20 10° NNW 06:10:45 62° W 06:15:09 10° S
